Location: Pasadena-CA
(34.1440°N, 118.1100°W)
Time: 17:22:06
(UTC-07:00)

BlueWalker 3 - Pass Details

Date: 25 May 2025
Orbit: 460 x 472 km, 53.2° (Epoch: 19 June)

Event Time Altitude Azimuth Distance (km) Brightness Sun altitude
Rises 20:20:27 0° 327° (NNW) 2,488 6.8 -5.5°
Reaches altitude 10° 20:22:58 10° 343° (NNW) 1,613 5.3 -5.9°
Maximum altitude 20:25:50 22° 36° (NE) 1,073 3.6 -6.4°
Drops below altitude 10° 20:28:42 10° 88° (E) 1,613 4.0 -7.0°
Enters shadow 20:29:29 - 95° (E) 1,871 4.3 -7.1°
